Location: Azul
(36.7830°S, 59.8500°W)
Time: 10:16:43
(UTC-03:00)

DOVE 4 - Pass Details

Date: 25 October 2021
Orbit: 588 x 799 km, 97.8° (Epoch: 07 December)

Event Time Altitude Azimuth Distance (km) Brightness Sun altitude
Exits shadow 00:16:07 20° 177° (S) 1,810 ? -40.6°
Drops below altitude 10° 00:17:43 10° 182° (S) 2,402 ? -40.7°
Sets 00:20:08 0° 186° (S) 3,343 ? -40.8°
